CFJRS CYWG-CYQR

Flight info

Callsign CFJRS
Flight time 0h 49m
Altitude 38000
Route LIVBI DCT DUKPO DCT FAREN DCT EMLIK DCT KEMKA KEMKA6
Aircraft CL60/M-SADE3FGHIJ3J4J7P2RWXY/HB1D1

Departure

Time 2026-05-07 01:16
Airport Winnipeg / James Armstrong Richardson International Airport (CYWG)

Arrival

Time 2026-05-07 02:05
Airport Regina International Airport (CYQR)
Time Latitude Longitude Altitude Speed Heading
2026-05-07 00:55 49.89296 -97.23203 771 ft 0 kts 317°
2026-05-07 01:11 49.89300 -97.23208 771 ft 2 kts 334°
2026-05-07 01:11 49.89333 -97.23207 771 ft 7 kts
2026-05-07 01:12 49.89384 -97.23231 771 ft 9 kts 323°
2026-05-07 01:12 49.89439 -97.23308 771 ft 13 kts 317°
2026-05-07 01:12 49.89516 -97.23442 771 ft 18 kts 286°
2026-05-07 01:12 49.89535 -97.23653 771 ft 20 kts 276°
2026-05-07 01:13 49.89551 -97.23877 771 ft 17 kts 274°
2026-05-07 01:13 49.89564 -97.24014 771 ft 3 kts 279°
2026-05-07 01:13 49.89565 -97.24023 771 ft 0 kts 279°
2026-05-07 01:14 49.89566 -97.24036 771 ft 2 kts 279°
2026-05-07 01:14 49.89573 -97.24114 771 ft 9 kts 277°
2026-05-07 01:14 49.89586 -97.24168 771 ft 4 kts 348°
2026-05-07 01:14 49.89599 -97.24166 771 ft 2 kts
2026-05-07 01:15 49.89601 -97.24166 771 ft 0 kts
2026-05-07 01:15 49.89902 -97.24095 771 ft 94 kts
2026-05-07 01:15 49.90838 -97.23872 857 ft 165 kts 13°
2026-05-07 01:16 49.92041 -97.23533 1567 ft 188 kts 14°
2026-05-07 01:16 49.93391 -97.23106 2302 ft 200 kts 12°
2026-05-07 01:16 49.94763 -97.22784 2862 ft 202 kts
2026-05-07 01:16 49.96166 -97.22578 2997 ft 202 kts 354°
2026-05-07 01:17 49.97438 -97.23483 3001 ft 201 kts 317°
2026-05-07 01:17 49.98356 -97.25162 3010 ft 201 kts 310°
2026-05-07 01:17 49.99195 -97.26904 3002 ft 200 kts 309°
2026-05-07 01:17 50.00021 -97.28637 3178 ft 195 kts 309°
2026-05-07 01:18 50.00554 -97.30569 3605 ft 203 kts 278°
2026-05-07 01:18 50.00560 -97.32882 4054 ft 230 kts 271°
2026-05-07 01:18 50.00345 -97.35466 5023 ft 254 kts 261°
2026-05-07 01:18 49.99862 -97.38071 6465 ft 258 kts 258°
2026-05-07 01:19 49.99340 -97.40717 7865 ft 263 kts 258°
2026-05-07 01:19 49.98802 -97.43440 9103 ft 272 kts 259°
2026-05-07 01:19 49.98235 -97.46278 10414 ft 279 kts 259°
2026-05-07 01:19 49.97640 -97.49290 11014 ft 308 kts 258°
2026-05-07 01:20 49.96990 -97.52519 11995 ft 320 kts 258°
2026-05-07 01:20 49.96310 -97.55869 13105 ft 327 kts 258°
2026-05-07 01:20 49.95629 -97.59220 14142 ft 334 kts 258°
2026-05-07 01:20 49.94921 -97.62685 15215 ft 339 kts 258°
2026-05-07 01:21 49.94198 -97.66202 16194 ft 344 kts 257°
2026-05-07 01:21 49.93465 -97.69752 17167 ft 349 kts 257°
2026-05-07 01:21 49.92719 -97.73355 18101 ft 353 kts 257°
2026-05-07 01:21 49.92240 -97.77070 18950 ft 353 kts 272°
2026-05-07 01:22 49.92523 -97.80830 19715 ft 356 kts 285°
2026-05-07 01:22 49.93037 -97.84612 20540 ft 360 kts 285°
2026-05-07 01:22 49.93540 -97.88406 21335 ft 363 kts 284°
2026-05-07 01:22 49.94051 -97.92297 22095 ft 368 kts 284°
2026-05-07 01:23 49.94558 -97.96213 22835 ft 372 kts 284°
2026-05-07 01:23 49.95069 -98.00188 23493 ft 377 kts 283°
2026-05-07 01:23 49.95577 -98.04172 24189 ft 381 kts 283°
2026-05-07 01:23 49.96092 -98.08245 24834 ft 385 kts 283°
2026-05-07 01:24 49.96604 -98.12319 25466 ft 389 kts 283°
2026-05-07 01:24 49.97122 -98.16464 26084 ft 392 kts 283°
2026-05-07 01:24 49.97641 -98.20643 26657 ft 395 kts 283°
2026-05-07 01:24 49.98161 -98.24858 27191 ft 398 kts 284°
2026-05-07 01:25 49.98685 -98.29121 27690 ft 401 kts 284°
2026-05-07 01:25 49.99209 -98.33403 28165 ft 404 kts 284°
2026-05-07 01:25 49.99731 -98.37691 28630 ft 407 kts 284°
2026-05-07 01:25 50.00257 -98.42029 28972 ft 410 kts 284°
2026-05-07 01:26 50.00782 -98.46386 29368 ft 413 kts 284°
2026-05-07 01:26 50.01313 -98.50804 29770 ft 416 kts 284°
2026-05-07 01:26 50.01843 -98.55236 30079 ft 418 kts 284°
2026-05-07 01:26 50.02372 -98.59685 30416 ft 418 kts 284°
2026-05-07 01:27 50.02900 -98.64143 30856 ft 417 kts 285°
2026-05-07 01:27 50.03427 -98.68613 31191 ft 415 kts 284°
2026-05-07 01:27 50.03947 -98.73050 31507 ft 414 kts 284°
2026-05-07 01:27 50.04458 -98.77412 31826 ft 412 kts 285°
2026-05-07 01:28 50.04973 -98.81831 32096 ft 412 kts 285°
2026-05-07 01:28 50.05479 -98.86187 32415 ft 411 kts 285°
2026-05-07 01:28 50.05990 -98.90609 32705 ft 410 kts 285°
2026-05-07 01:28 50.06490 -98.94938 32997 ft 410 kts 285°
2026-05-07 01:29 50.06995 -98.99335 33286 ft 409 kts 286°
2026-05-07 01:29 50.07493 -99.03687 33567 ft 409 kts 286°
2026-05-07 01:29 50.07997 -99.08102 33864 ft 409 kts 286°
2026-05-07 01:30 50.09008 -99.16934 33962 ft 423 kts 286°
2026-05-07 01:30 50.10059 -99.26183 33946 ft 437 kts 286°
2026-05-07 01:31 50.11126 -99.35638 33948 ft 449 kts 286°
2026-05-07 01:31 50.12207 -99.45283 33945 ft 457 kts 286°
2026-05-07 01:32 50.13301 -99.55138 33944 ft 461 kts 286°
2026-05-07 01:32 50.14392 -99.65060 33948 ft 461 kts 285°
2026-05-07 01:33 50.15465 -99.74918 33934 ft 461 kts 285°
2026-05-07 01:33 50.16534 -99.84811 33955 ft 460 kts 285°
2026-05-07 01:34 50.17437 -99.94717 33936 ft 462 kts 283°
2026-05-07 01:34 50.18268 -100.04691 33899 ft 462 kts 284°
2026-05-07 01:35 50.19084 -100.14590 33913 ft 461 kts 284°
2026-05-07 01:35 50.19899 -100.24575 33888 ft 460 kts 284°
2026-05-07 01:36 50.20697 -100.34459 33919 ft 459 kts 284°
2026-05-07 01:36 50.21486 -100.44337 33927 ft 459 kts 284°
2026-05-07 01:37 50.22274 -100.54301 33912 ft 460 kts 284°
2026-05-07 01:37 50.23049 -100.64215 33934 ft 458 kts 284°
2026-05-07 01:38 50.23817 -100.74161 33929 ft 458 kts 284°
2026-05-07 01:38 50.24572 -100.84030 33934 ft 457 kts 284°
2026-05-07 01:39 50.25322 -100.93958 33940 ft 456 kts 284°
2026-05-07 01:39 50.26054 -101.03784 33955 ft 454 kts 284°
2026-05-07 01:40 50.26783 -101.13657 33907 ft 452 kts 284°
2026-05-07 01:40 50.27502 -101.23501 33956 ft 454 kts 285°
2026-05-07 01:41 50.28209 -101.33337 33959 ft 451 kts 284°
2026-05-07 01:41 50.28907 -101.43121 33934 ft 451 kts 285°
2026-05-07 01:42 50.29596 -101.52902 33939 ft 451 kts 285°
2026-05-07 01:42 50.30273 -101.62658 33935 ft 449 kts 285°
2026-05-07 01:43 50.30940 -101.72366 33949 ft 448 kts 285°
2026-05-07 01:43 50.31597 -101.82052 33927 ft 448 kts 285°
2026-05-07 01:44 50.32251 -101.91838 33919 ft 446 kts 285°
2026-05-07 01:44 50.32888 -102.01461 33929 ft 446 kts 285°
2026-05-07 01:45 50.33528 -102.11234 33444 ft 444 kts 285°
2026-05-07 01:45 50.33834 -102.16016 32921 ft 438 kts 286°
2026-05-07 01:45 50.34137 -102.20753 32226 ft 433 kts 286°
2026-05-07 01:45 50.34432 -102.25428 31722 ft 428 kts 287°
2026-05-07 01:46 50.34726 -102.30046 31139 ft 428 kts 287°
2026-05-07 01:46 50.35021 -102.34686 30575 ft 428 kts 287°
2026-05-07 01:46 50.35315 -102.39358 29999 ft 425 kts 287°
2026-05-07 01:46 50.35602 -102.43971 29431 ft 422 kts 287°
2026-05-07 01:47 50.35883 -102.48516 28869 ft 418 kts 287°
2026-05-07 01:47 50.36146 -102.53050 28316 ft 416 kts 286°
2026-05-07 01:47 50.36392 -102.57539 27723 ft 413 kts 286°
2026-05-07 01:47 50.36634 -102.62008 27179 ft 409 kts 286°
2026-05-07 01:48 50.36874 -102.66458 26627 ft 406 kts 285°
2026-05-07 01:48 50.37111 -102.70870 26085 ft 403 kts 285°
2026-05-07 01:48 50.37344 -102.75225 25561 ft 401 kts 285°
2026-05-07 01:48 50.37576 -102.79602 25038 ft 399 kts 285°
2026-05-07 01:49 50.37803 -102.83911 24458 ft 396 kts 285°
2026-05-07 01:49 50.38026 -102.88216 23964 ft 393 kts 285°
2026-05-07 01:49 50.38249 -102.92472 23460 ft 392 kts 284°
2026-05-07 01:49 50.38468 -102.96719 22903 ft 390 kts 284°
2026-05-07 01:50 50.38686 -103.00986 22405 ft 389 kts 284°
2026-05-07 01:50 50.38899 -103.05189 21880 ft 385 kts 284°
2026-05-07 01:50 50.39114 -103.09436 21384 ft 385 kts 283°
2026-05-07 01:50 50.39323 -103.13605 20867 ft 382 kts 283°
2026-05-07 01:51 50.39528 -103.17722 20352 ft 381 kts 283°
2026-05-07 01:51 50.39732 -103.21859 19857 ft 378 kts 283°
2026-05-07 01:51 50.39933 -103.25958 19353 ft 376 kts 283°
2026-05-07 01:51 50.40133 -103.30079 18863 ft 374 kts 282°
2026-05-07 01:52 50.40329 -103.34132 18365 ft 371 kts 282°
2026-05-07 01:52 50.40523 -103.38181 17868 ft 370 kts 282°
2026-05-07 01:52 50.40711 -103.42152 17378 ft 365 kts 282°
2026-05-07 01:52 50.40898 -103.46131 16884 ft 361 kts 281°
2026-05-07 01:53 50.41081 -103.50055 16416 ft 357 kts 281°
2026-05-07 01:53 50.41259 -103.53919 15953 ft 352 kts 281°
2026-05-07 01:53 50.41431 -103.57700 15472 ft 347 kts 281°
2026-05-07 01:53 50.41602 -103.61459 15022 ft 343 kts 281°
2026-05-07 01:54 50.41771 -103.65217 14563 ft 339 kts 279°
2026-05-07 01:54 50.41933 -103.68857 14123 ft 334 kts 279°
2026-05-07 01:54 50.42093 -103.72481 13676 ft 329 kts 279°
2026-05-07 01:54 50.42250 -103.76053 13243 ft 324 kts 279°
2026-05-07 01:55 50.42401 -103.79538 12812 ft 319 kts 279°
2026-05-07 01:55 50.42551 -103.83018 12393 ft 313 kts 278°
2026-05-07 01:55 50.42692 -103.86381 11987 ft 308 kts 277°
2026-05-07 01:55 50.42498 -103.89708 11608 ft 308 kts 260°
2026-05-07 01:56 50.41846 -103.92922 11171 ft 307 kts 257°
2026-05-07 01:56 50.41173 -103.96098 10753 ft 302 kts 257°
2026-05-07 01:56 50.40511 -103.99214 10358 ft 297 kts 256°
2026-05-07 01:56 50.39860 -104.02263 9962 ft 291 kts 256°
2026-05-07 01:57 50.39226 -104.05205 9711 ft 282 kts 256°
2026-05-07 01:57 50.38597 -104.08131 9241 ft 281 kts 256°
2026-05-07 01:57 50.37975 -104.10998 8880 ft 276 kts 256°
2026-05-07 01:57 50.37358 -104.13830 8560 ft 270 kts 256°
2026-05-07 01:58 50.36756 -104.16592 8173 ft 268 kts 256°
2026-05-07 01:58 50.36153 -104.19350 7791 ft 263 kts 255°
2026-05-07 01:58 50.35566 -104.22018 7527 ft 256 kts 256°
2026-05-07 01:58 50.34981 -104.24676 7158 ft 253 kts 255°
2026-05-07 01:59 50.34421 -104.27267 6831 ft 249 kts 256°
2026-05-07 01:59 50.33892 -104.29827 6561 ft 243 kts 256°
2026-05-07 01:59 50.33378 -104.32307 6419 ft 232 kts 256°
2026-05-07 01:59 50.32888 -104.34667 6208 ft 228 kts 256°
2026-05-07 02:00 50.32392 -104.37066 5786 ft 231 kts 256°
2026-05-07 02:00 50.31905 -104.39397 5626 ft 222 kts 256°
2026-05-07 02:00 50.31427 -104.41682 5348 ft 217 kts 256°
2026-05-07 02:00 50.30963 -104.43891 5198 ft 209 kts 257°
2026-05-07 02:01 50.30561 -104.46069 4919 ft 204 kts 266°
2026-05-07 02:01 50.30788 -104.48164 4647 ft 188 kts 302°
2026-05-07 02:01 50.31589 -104.49723 4471 ft 188 kts 321°
2026-05-07 02:01 50.32595 -104.51115 4236 ft 190 kts 323°
2026-05-07 02:02 50.33560 -104.52454 4068 ft 178 kts 322°
2026-05-07 02:02 50.34440 -104.53693 3846 ft 161 kts 322°
2026-05-07 02:02 50.35217 -104.54788 3722 ft 140 kts 322°
2026-05-07 02:02 50.35949 -104.55816 3540 ft 139 kts 323°
2026-05-07 02:03 50.36671 -104.56829 3430 ft 138 kts 323°
2026-05-07 02:03 50.37382 -104.57828 3270 ft 136 kts 323°
2026-05-07 02:03 50.38085 -104.58816 3100 ft 135 kts 323°
2026-05-07 02:03 50.38783 -104.59798 2923 ft 133 kts 323°
2026-05-07 02:04 50.39479 -104.60777 2729 ft 133 kts 322°
2026-05-07 02:04 50.40165 -104.61745 2537 ft 131 kts 322°
2026-05-07 02:04 50.40827 -104.62719 2366 ft 131 kts 320°
2026-05-07 02:04 50.41502 -104.63687 2174 ft 132 kts 321°
2026-05-07 02:05 50.42181 -104.64644 1984 ft 126 kts 319°
2026-05-07 02:05 50.42800 -104.65514 1895 ft 103 kts 317°
2026-05-07 02:05 50.43196 -104.66074 1891 ft 45 kts 318°
2026-05-07 02:05 50.43350 -104.66290 1891 ft 21 kts 320°
2026-05-07 02:06 50.43430 -104.66290 1891 ft 8 kts 42°
2026-05-07 02:06 50.43472 -104.66221 1891 ft 10 kts 46°
2026-05-07 02:06 50.43546 -104.66200 1891 ft 13 kts 322°
2026-05-07 02:06 50.43613 -104.66248 1890 ft 10 kts 33°
2026-05-07 02:07 50.43687 -104.66129 1888 ft 19 kts 48°
2026-05-07 02:07 50.43801 -104.66043 1888 ft 1 kts 342°
2026-05-07 02:07 50.43807 -104.66045 1888 ft 2 kts 358°
2026-05-07 02:08 50.43822 -104.66047 1888 ft 0 kts 314°
2026-05-07 02:08 50.43823 -104.66055 1888 ft 0 kts 256°
2026-05-07 02:08 50.43823 -104.66056 1888 ft 0 kts 249°